Date String (YYYY-MM-DD hh:mm:ss) UTC,Instrument flags,Ambient pressure (hPa),Sample flow (lpm),Bypass flow (lpm),Sample temperature (°C),Ambient temperature (°C),ASC tube jacket temperature (°C),LED temperature (°C),Box temperature (°C),Sample RH (%),Span deviation,Mass concentration (μg/m³),Mass concentration (μg/m³),Mass concentration (μg/m³)
DateTimeUTC,F1_M11,P_M11,Q1_M11,Q2_M11,T1_M11,T2_M11,T3_M11,T4_M11,T5_M11,U1_M11,ZSPAN_M11,X0_M11,X2_M11,X1_M11
2022-03-12 11:00:00,,0825.9,5.00,0.00,22.3,21.4,00.0,31.3,23.9,07.8,0000.0,0011.29,0005.74,0005.25
2022-03-12 11:01:00,,0825.9,5.01,0.00,22.2,21.3,00.0,31.3,23.9,07.8,0000.0,0011.19,0005.52,0005.00
2022-03-12 11:02:00,,0825.8,5.01,0.00,22.2,21.3,00.0,31.3,23.9,07.8,0000.0,0010.89,0005.29,0004.76
2022-03-12 11:03:00,,0825.8,4.99,0.00,22.2,21.3,00.0,31.3,23.8,07.8,0000.0,0010.62,0005.10,0004.58
2022-03-12 11:04:00,,0825.8,4.99,0.00,22.1,21.3,00.0,31.2,23.7,08.0,0000.0,0010.32,0004.87,0004.39
2022-03-12 11:05:00,,0825.9,5.00,0.00,22.2,21.8,00.0,31.3,23.9,08.0,0000.0,0009.91,0004.67,0004.21
2022-03-12 11:06:00,,0825.9,5.01,0.00,22.3,22.6,00.0,31.3,24.2,07.9,0000.0,0009.21,0004.51,0004.04
2022-03-12 11:07:00,,0825.9,5.00,0.00,22.5,23.2,00.0,31.3,24.4,07.9,0000.0,0008.44,0004.43,0003.96
2022-03-12 11:08:00,,0825.8,4.99,0.00,22.6,23.0,00.0,31.4,24.5,07.9,0000.0,0008.34,0004.37,0003.90
2022-03-12 11:09:00,,0825.8,5.00,0.00,22.6,22.7,00.0,31.4,24.4,07.9,0000.0,0008.39,0004.31,0003.82
2022-03-12 11:10:00,,0825.8,4.99,0.00,22.6,22.5,00.0,31.4,24.4,07.9,0000.0,0008.39,0004.24,0003.75
2022-03-12 11:11:00,,0825.7,5.01,0.00,22.5,22.3,00.0,31.4,24.3,07.9,0000.0,0007.61,0004.11,0003.66
2022-03-12 11:12:00,,0825.7,5.01,0.00,22.5,22.1,00.0,31.4,24.2,07.8,0000.0,0007.28,0004.01,0003.58
2022-03-12 11:13:00,,0825.7,4.99,0.00,22.5,21.9,00.0,31.4,24.2,07.8,0000.0,0006.91,0003.89,0003.50
2022-03-12 11:14:00,,0825.7,4.99,0.00,22.4,21.8,00.0,31.4,24.1,07.8,0000.0,0006.67,0003.78,0003.41
2022-03-12 11:15:00,,0825.7,5.00,0.00,22.4,21.7,00.0,31.4,24.0,07.8,0000.0,0006.84,0003.60,0003.26
2022-03-12 11:16:00,,0825.7,5.01,0.00,22.3,21.5,00.0,31.4,23.9,07.8,0000.0,0006.84,0003.42,0003.04
2022-03-12 11:17:00,,0825.7,4.99,0.00,22.3,21.4,00.0,31.3,23.8,07.9,0000.0,0007.57,0003.31,0002.84
2022-03-12 11:18:00,,0825.8,4.98,0.00,22.2,21.2,00.0,31.3,23.8,08.0,0000.0,0007.58,0003.20,0002.68
2022-03-12 11:19:00,,0825.8,5.02,0.00,22.2,21.2,00.0,31.3,23.8,08.0,0000.0,0007.44,0003.09,0002.54
2022-03-12 11:20:00,,0825.9,4.99,0.00,22.2,21.2,00.0,31.3,23.7,07.9,0000.0,0007.35,0003.07,0002.51
2022-03-12 11:21:00,,0825.9,5.00,0.00,22.1,21.4,00.0,31.3,23.8,07.9,0000.0,0007.23,0003.04,0002.48
2022-03-12 11:22:00,,0825.7,5.01,0.00,22.2,22.2,00.0,31.3,24.0,07.8,0000.0,0007.66,0003.10,0002.49
2022-03-12 11:23:00,,0825.8,4.99,0.00,22.4,23.0,00.0,31.3,24.3,07.7,0000.0,0007.73,0003.15,0002.57
2022-03-12 11:24:00,,0825.8,5.00,0.00,22.5,23.2,00.0,31.4,24.5,07.7,0000.0,0007.77,0003.21,0002.69
2022-03-12 11:25:00,,0825.7,5.01,0.00,22.6,22.9,00.0,31.4,24.5,07.6,0000.0,0008.18,0003.26,0002.79
2022-03-12 11:26:00,,0825.7,5.00,0.00,22.6,22.6,00.0,31.4,24.4,07.6,0000.0,0008.25,0003.31,0002.84
2022-03-12 11:27:00,,0825.7,5.00,0.00,22.5,22.3,00.0,31.4,24.3,07.7,0000.0,0008.03,0003.35,0002.89
2022-03-12 11:28:00,,0825.7,4.99,0.00,22.5,22.2,00.0,31.4,24.2,07.7,0000.0,0007.24,0003.36,0002.95
2022-03-12 11:29:00,,0825.8,5.01,0.00,22.5,22.0,00.0,31.4,24.2,07.7,0000.0,0007.75,0003.41,0003.02
2022-03-12 11:30:00,,0825.8,5.00,0.00,22.5,21.9,00.0,31.4,24.1,07.7,0000.0,0007.73,0003.42,0003.05
2022-03-12 11:31:00,,0825.8,5.00,0.00,22.4,21.8,00.0,31.4,24.1,07.7,0000.0,0007.75,0003.44,0003.06
2022-03-12 11:32:00,,0825.7,5.00,0.00,22.4,21.8,00.0,31.4,24.0,07.7,0000.0,0007.63,0003.41,0003.05
2022-03-12 11:33:00,,0825.8,5.01,0.00,22.3,21.7,00.0,31.4,23.9,07.8,0000.0,0007.52,0003.35,0003.01
2022-03-12 11:34:00,,0825.8,4.99,0.00,22.3,21.5,00.0,31.4,23.9,07.8,0000.0,0007.77,0003.33,0002.94
2022-03-12 11:35:00,,0825.8,5.01,0.00,22.3,21.5,00.0,31.3,23.9,07.8,0000.0,0007.79,0003.31,0002.87
2022-03-12 11:36:00,,0825.9,4.99,0.00,22.2,21.4,00.0,31.3,23.9,07.8,0000.0,0007.38,0003.30,0002.84
2022-03-12 11:37:00,,0825.9,5.01,0.00,22.2,21.4,00.0,31.3,23.9,08.0,0000.0,0007.10,0003.32,0002.86
2022-03-12 11:38:00,,0825.9,5.00,0.00,22.2,21.4,00.0,31.3,23.8,07.9,0000.0,0007.01,0003.30,0002.85
2022-03-12 11:39:00,,0825.7,4.99,0.00,22.2,21.3,00.0,31.3,23.8,07.9,0000.0,0007.05,0003.29,0002.83
2022-03-12 11:40:00,,0825.7,5.00,0.00,22.2,21.4,00.0,31.3,23.8,07.9,0000.0,0005.76,0003.26,0002.78
2022-03-12 11:41:00,,0825.8,5.01,0.00,22.2,22.0,00.0,31.3,24.0,07.8,0000.0,0005.75,0003.23,0002.69
2022-03-12 11:42:00,,0825.9,4.99,0.00,22.4,22.8,00.0,31.3,24.3,07.8,0000.0,0006.19,0003.17,0002.60
2022-03-12 11:43:00,,0825.8,5.02,0.00,22.5,23.2,00.0,31.4,24.5,07.8,0000.0,0006.32,0003.15,0002.56
2022-03-12 11:44:00,,0825.8,4.99,0.00,22.6,22.9,00.0,31.4,24.4,07.8,0000.0,0007.30,0003.16,0002.55
2022-03-12 11:45:00,,0825.8,5.01,0.00,22.6,22.6,00.0,31.4,24.3,07.8,0000.0,0006.37,0003.10,0002.49
2022-03-12 11:46:00,,0825.9,5.00,0.00,22.5,22.4,00.0,31.4,24.3,07.8,0000.0,0006.32,0003.06,0002.50
2022-03-12 11:47:00,,0825.9,5.00,0.00,22.5,22.2,00.0,31.4,24.2,07.9,0000.0,0006.71,0003.11,0002.54
2022-03-12 11:48:00,,0825.9,4.99,0.00,22.5,22.0,00.0,31.4,24.2,08.0,0000.0,0006.75,0003.03,0002.43
2022-03-12 11:49:00,,0825.9,5.01,0.00,22.4,21.8,00.0,31.4,24.0,08.0,0000.0,0006.74,0002.99,0002.37
2022-03-12 11:50:00,,0826.0,4.99,0.00,22.4,21.7,00.0,31.4,24.0,08.1,0000.0,0006.76,0002.98,0002.30
2022-03-12 11:51:00,,0826.0,4.99,0.00,22.3,21.6,00.0,31.4,24.0,08.1,0000.0,0006.61,0002.88,0002.20
2022-03-12 11:52:00,,0826.0,5.01,0.00,22.3,21.6,00.0,31.4,23.9,08.3,0000.0,0006.49,0002.78,0002.13
2022-03-12 11:53:00,,0826.0,5.00,0.00,22.3,21.5,00.0,31.3,23.9,08.1,0000.0,0006.04,0002.66,0002.06
2022-03-12 11:54:00,,0825.9,4.99,0.00,22.2,21.4,00.0,31.3,23.9,08.2,0000.0,0005.47,0002.62,0002.03
2022-03-12 11:55:00,,0826.0,5.00,0.00,22.2,21.4,00.0,31.3,23.8,08.1,0000.0,0004.50,0002.52,0001.92
2022-03-12 11:56:00,,0826.0,5.02,0.00,22.2,21.3,00.0,31.3,23.7,08.2,0000.0,0004.22,0002.46,0001.84
2022-03-12 11:57:00,,0826.0,4.99,0.00,22.1,21.3,00.0,31.3,23.6,08.1,0000.0,0004.01,0002.37,0001.77
2022-03-12 11:58:00,,0826.0,5.00,0.00,22.1,21.5,00.0,31.3,23.7,08.2,0000.0,0003.44,0002.20,0001.60
2022-03-12 11:59:00,,0826.0,5.00,0.00,22.2,22.3,00.0,31.3,24.0,08.3,0000.0,0003.15,0002.05,0001.49
